map of ZNZ home
Great Circle Mapper logo
ZNZ - Airport
Location
City:  Zanzibar City, Zanzibar West (Mjini Magharibi), Tanzania
Name:Abeid Amani Karume International Airport
ICAO:HTZA
IATA:ZNZ

Details
Type:Airport (Aerodrome, Airfield)
Use:Public/Civil, International (customs port of entry)
Latitude:613'19"S (-6.222024)
Longitude:3913'30"E (39.224886)
Datum:WGS 1984
Elevation:54 ft (16 m)
Variation:1.82W (WMM2015 magnetic declination)
0.01 annual change
Runways:1
Longest:8077 × 148 ft (2462 × 45 m), paved

Time
Time Zone:UTC+3
Local Time:

Weather
METAR:HTZA 250800Z 21010KT 9999 FEW020 29/22 Q1019 NOSIG
TAF:HTZA 250500Z 2506/2606 21010KT 9999 SCT018 BKN080
BECMG 2510/2512 15015KT SCT020
BECMG 2602/2604 21010KT BKN016

Related Locations
Nearby:
Farthest:NHV: 11397 mi / 18342 km
Nuku Hiva, Marquesas Islands, PF

Find:

   beyond  
but within

Other Information
Maps:
NOTAMs:
Links:
Sources:

  
flag of Tanzania   

Sectional Chart

Flight Planning
at skyvector.com

Satellite Image

Google Maps Satellite view

 

Copyright © 2004-2016 Karl L. Swartz. All rights reserved.
The Great Circle Mapper name and logo are trademarks of the Great Circle Mapper.
All other trademarks mentioned herein belong to their respective owners.
Please see credits for attibutions and further copyright information.

  Follow gcmap on Facebook Follow gcmap on Twitter Follow gcmap on Google+ GCmap on LinkedIn

hCard Microformat

Geo Microformat